Location: Poitiers
(46.5657°N, 0.3938°E)
Time: 12:30:54
(UTC+02:00)

ISS - Visible Passes

Search period start: 21 April 2024 00:00
Search period end: 01 May 2024 00:00
Orbit: 412 x 418 km, 51.6° (Epoch: 20 April)

Date Brightness Start Highest point End Pass type
(mag) Time Alt. Az. Time Alt. Az. Time Alt. Az.
21 Apr -1.9 06:19:13 10° SSW 06:21:58 24° SE 06:24:44 10° E visible
22 Apr -1.3 05:31:12 10° S 05:33:14 15° SE 05:35:17 10° E visible
23 Apr -3.4 06:17:20 10° SW 06:20:35 56° SSE 06:23:52 10° ENE visible
24 Apr -2.7 05:29:58 21° SSW 05:31:39 35° SE 05:34:43 10° ENE visible
25 Apr -2.0 04:42:45 22° SE 04:42:45 22° SE 04:45:22 10° E visible
25 Apr -3.6 06:15:50 10° WSW 06:19:10 70° NNW 06:22:29 10° ENE visible
26 Apr -0.8 03:55:26 10° ESE 03:55:26 10° ESE 03:55:34 10° ESE visible
26 Apr -3.8 05:28:17 26° SW 05:30:01 79° SSE 05:33:21 10° ENE visible
27 Apr -3.4 04:40:51 50° SSE 04:40:52 50° SSE 04:44:07 10° ENE visible
27 Apr -2.8 06:14:26 10° W 06:17:38 42° NNW 06:20:50 10° ENE visible
28 Apr -1.6 03:53:21 20° E 03:53:21 20° E 03:54:44 10° ENE visible
28 Apr -3.3 05:26:11 19° W 05:28:19 55° NNW 05:31:36 10° ENE visible
29 Apr -3.8 04:38:35 64° W 04:38:58 77° NNW 04:42:19 10° ENE visible
30 Apr -2.3 03:50:54 34° ENE 03:50:54 34° ENE 03:52:57 10° ENE visible
30 Apr -2.5 05:23:43 12° WNW 05:26:29 37° N 05:29:39 10° ENE visible
